Point Salines Arpt, Grenada

1:54 PM AST on January 16, 2017 (GMT -0400)
Point Salines International

Weather History for TGPY - November, 2012

Change the Weather History Date:

Friday, November 16, 2012

  Actual Average Record
Temperature  
Mean Temperature 83 °F -  
Max Temperature 89 °F 83 °F 102 °F (1999)
Min Temperature 77 °F 74 °F 73 °F (2013)
Cooling Degree Days 18    
Growing Degree Days 33 (Base 50)    
Moisture  
Dew Point 76 °F    
Average Humidity 80    
Maximum Humidity 94    
Minimum Humidity 65    
Precipitation  
Precipitation 0.00 in - - ()
Sea Level Pressure  
Sea Level Pressure 29.85 in    
Wind  
Wind Speed 6 mph ()    
Max Wind Speed 20 mph    
Max Gust Speed -    
Visibility 7.9 miles    
Events      
Averages and records for this station are not official NWS values.
T = Trace of Precipitation, MM = Missing Value Source: Averaged Metar Reports

Daily Weather History Graph

Daily Weather History Graph

Search for Another Location

Airport or City:

Trip Planner

Search our weather history database for the weather conditions in past years. The results will help you decide how hot, cold, wet, or windy it might be!

Date:

Astronomy

Nov. 16, 2012 Rise Set
Actual Time 6:05 AM AST 5:38 PM AST
Civil Twilight 5:42 AM AST 6:01 PM AST
Nautical Twilight 5:16 AM AST 6:26 PM AST
Astronomical Twilight 4:51 AM AST 6:52 PM AST
Moon 8:47 AM AST 8:39 PM AST
Length of Visible Light 12h 18m
Length of Day
11h 33m
Waxing Crescent, 11% of the Moon is Illuminated
Nov 16
Waxing Crescent
Nov 20
First Quarter
Nov 28
Full
Dec 6
Last Quarter
Dec 13
New

Hourly Weather History & Observations

Time (AST) Temp. Heat Index Dew Point Humidity Pressure Visibility Wind Dir Wind Speed Gust Speed Precip Events Conditions
12:00 AM 78.8 °F - 75.2 °F 89% 29.86 in 6.2 mi East 3.5 mph - N/A   Partly Cloudy
1:00 AM 78.8 °F - 75.2 °F 89% 29.83 in 6.2 mi East 4.6 mph - N/A   Partly Cloudy
2:00 AM 79 °F - 76 °F 87% 29.83 in 12 mi Calm Calm - -   Widespread Dust
2:00 AM 78.8 °F - 75.2 °F 89% 29.83 in 6.2 mi Calm Calm - N/A   Scattered Clouds
3:00 AM 78.8 °F - 75.2 °F 89% 29.83 in 6.2 mi Calm Calm - N/A   Partly Cloudy
4:00 AM 78.8 °F - 75.2 °F 89% 29.83 in 6.2 mi ENE 3.5 mph - N/A   Partly Cloudy
5:00 AM 77 °F - 75 °F 90% 29.84 in 9 mi Calm Calm - -   Widespread Dust
5:00 AM 77.0 °F - 75.2 °F 94% 29.83 in 6.2 mi Calm Calm - N/A   Scattered Clouds
6:00 AM 78.8 °F - 75.2 °F 89% 29.83 in 6.2 mi ENE 4.6 mph - N/A   Mostly Cloudy
7:00 AM 80.6 °F 87.1 °F 77.0 °F 89% 29.86 in 6.2 mi Variable 2.3 mph - N/A   Mostly Cloudy
8:00 AM 83 °F - 78 °F 81% 29.90 in 9 mi ENE 3.5 mph - -   Partly Cloudy
8:00 AM 82.4 °F 92.4 °F 78.8 °F 89% 29.89 in 6.2 mi ENE 3.5 mph - N/A   Mostly Cloudy
9:00 AM 86.0 °F 99.3 °F 78.8 °F 79% 29.89 in 6.2 mi East 8.1 mph - N/A   Mostly Cloudy
10:00 AM 87.8 °F 99.7 °F 77.0 °F 70% 29.89 in 6.2 mi East 15.0 mph - N/A   Scattered Clouds
11:00 AM 87 °F - 77 °F 65% 29.89 in 16 mi ESE 18.4 mph - -   Partly Cloudy
11:00 AM 87.8 °F 99.7 °F 77.0 °F 70% 29.89 in 6.2 mi ESE 18.4 mph - N/A   Mostly Cloudy
12:00 PM 87.8 °F 99.7 °F 77.0 °F 70% 29.86 in 6.2 mi ESE 19.6 mph - N/A   Mostly Cloudy
1:00 PM 87.8 °F 102.5 °F 78.8 °F 75% 29.86 in 6.2 mi SE 16.1 mph - N/A   Scattered Clouds
2:00 PM 87 °F - 77 °F 66% 29.84 in 16 mi ESE 17.3 mph - -   Partly Cloudy
2:00 PM 86.0 °F 96.9 °F 77.0 °F 74% 29.83 in 6.2 mi ESE 17.3 mph - N/A   Scattered Clouds
3:00 PM 86.0 °F 96.9 °F 77.0 °F 74% 29.80 in 6.2 mi ESE 15.0 mph - N/A   Partly Cloudy
4:00 PM 86.0 °F 96.9 °F 77.0 °F 74% 29.80 in 6.2 mi ESE 13.8 mph - N/A   Partly Cloudy
5:00 PM 84 °F - 76 °F 71% 29.83 in 17 mi ESE 11.5 mph - -   Scattered Clouds
5:00 PM 84.2 °F 92.3 °F 75.2 °F 74% 29.83 in 6.2 mi ESE 11.5 mph - N/A   Partly Cloudy
6:00 PM 82.4 °F 89.5 °F 75.2 °F 79% 29.83 in 6.2 mi East 8.1 mph - N/A   Scattered Clouds
7:00 PM 82.4 °F 89.5 °F 75.2 °F 79% 29.83 in 6.2 mi ESE 5.8 mph - N/A   Scattered Clouds
8:00 PM 82 °F - 75 °F 75% 29.86 in 17 mi ESE 6.9 mph - -   Scattered Clouds
8:00 PM 82.4 °F 89.5 °F 75.2 °F 79% 29.86 in 6.2 mi ESE 6.9 mph - N/A   Partly Cloudy
9:00 PM 80.6 °F 86.2 °F 75.2 °F 84% 29.86 in 6.2 mi ENE 3.5 mph - N/A   Partly Cloudy
10:00 PM 80.6 °F 86.2 °F 75.2 °F 84% 29.89 in 6.2 mi Calm Calm - N/A   Scattered Clouds
11:00 PM 80.6 °F 87.1 °F 77.0 °F 89% 29.89 in 6.2 mi Calm Calm - N/A   Scattered Clouds